Theta_e
316 315 313 313 313 313 314 314 314 314 313 312 312 312 313 313 313 312 311 311 309 310 310 309 309 309 310 311 315 320 321 322 318 316 319 326 326 324 320 322 327 335 334 332 333 335 344
312 312 312 311 311 311 311 311 310 310 310 311 311 310 310 312 313 314 313 313 313 311 310 310 309 308 309 308 319 319 318 317 322 320 324 324 323 325 322 322 324 328 329 330 331 331 346
313 312 311 311 310 309 309 309 309 309 308 308 310 310 309 310 312 314 315 315 315 313 311 311 310 308 308 315 319 319 321 321 319 322 322 321 321 323 323 322 326 328 329 326 327 329 342
312 312 311 311 310 309 309 308 308 308 308 307 307 307 308 309 310 312 316 317 314 315 313 312 310 308 309 315 317 318 321 320 320 321 322 323 323 322 324 325 325 325 324 326 327 327 331
311 310 310 310 310 310 309 307 307 307 307 306 307 307 307 308 309 310 316 315 313 313 314 316 312 310 312 314 315 318 320 320 321 324 322 324 325 323 323 323 321 319 325 325 325 325 336
310 310 309 309 308 308 308 307 308 307 307 307 307 306 307 308 308 311 314 313 314 320 320 321 319 318 317 317 325 325 322 320 322 324 323 323 323 318 317 318 323 323 324 323 324 327 335
309 309 309 307 305 305 306 307 307 307 306 305 305 306 307 307 308 310 312 314 314 315 313 315 320 318 318 319 319 324 325 320 320 322 320 322 322 320 320 319 321 322 323 323 324 327 335
307 306 305 305 304 304 304 304 303 303 303 303 303 303 304 306 307 310 310 310 309 308 308 314 316 315 317 317 317 321 325 319 319 319 318 319 321 321 321 320 321 321 322 322 322 323 327
303 302 302 302 302 302 302 302 302 302 302 302 302 302 302 304 308 310 310 310 309 309 307 311 314 314 314 316 316 319 322 320 320 320 318 320 319 320 322 322 321 320 321 322 322 324 328
302 301 301 301 301 301 301 301 301 301 301 301 301 301 302 303 306 307 310 309 309 311 307 312 312 313 314 316 316 318 322 321 321 321 319 318 319 321 321 322 321 320 321 323 323 324 324
301 301 301 301 301 302 302 302 302 302 302 302 301 301 301 301 302 304 308 310 311 311 318 321 315 315 315 317 318 317 319 325 322 320 319 320 320 321 321 322 321 323 323 323 325 324 325
301 301 301 301 301 301 302 302 302 302 303 303 302 301 301 303 302 305 304 309 312 310 314 318 317 314 314 315 317 319 320 326 324 322 321 321 322 321 321 322 322 323 323 321 322 321 324
300 300 300 300 300 300 301 301 302 302 303 303 302 302 301 302 303 302 303 309 308 310 314 318 314 314 314 315 316 319 321 322 322 323 323 322 323 320 321 321 321 321 318 320 319 322 325
300 300 300 300 300 300 300 300 301 302 302 302 303 302 301 305 308 303 304 306 309 313 312 313 314 313 315 315 315 316 322 323 323 320 322 322 323 322 320 321 321 318 319 316 320 321 324
299 300 300 300 300 300 300 301 301 301 302 302 302 302 302 306 305 308 309 307 308 310 313 314 313 314 315 315 314 315 313 323 324 317 320 320 322 320 323 321 321 319 320 319 318 319 319
300 300 300 300 300 300 301 301 301 301 302 302 303 303 304 305 305 306 306 308 308 311 311 313 313 314 315 314 315 314 315 315 317 320 317 317 318 317 321 321 320 321 318 321 312 321 322
300 300 301 300 300 300 300 301 301 301 302 302 303 303 303 305 306 308 307 307 310 311 312 312 313 314 314 315 315 315 316 316 318 318 317 317 316 320 318 318 319 318 321 317 316 315 321
300 299 300 300 301 301 301 301 301 301 302 302 303 300 303 304 303 301 304 305 310 310 310 311 312 312 313 314 314 315 316 316 316 317 319 317 311 319 319 318 320 320 320 316 319 318 316
299 299 300 302 301 301 301 302 301 301 302 302 303 303 304 305 303 302 303 306 308 308 309 309 310 310 311 313 314 315 315 316 315 316 318 317 315 316 316 318 318 318 319 319 318 315 322
299 301 302 303 303 302 302 303 302 301 302 302 303 301 304 304 303 303 303 304 307 308 309 307 308 310 311 311 311 313 314 316 313 314 318 313 312 316 318 317 319 319 321 321 319 320 322
301 302 302 303 303 303 303 303 302 301 302 303 302 300 302 301 302 301 302 303 307 307 308 307 307 308 310 311 312 313 313 312 313 314 311 310 313 315 317 317 319 320 320 322 320 321 322
301 301 301 302 302 303 303 303 302 302 302 302 302 303 303 302 302 301 301 304 306 305 306 308 307 307 308 309 310 311 310 312 312 311 310 308 314 313 316 318 321 322 321 322 322 322 321
300 300 301 301 302 302 302 301 302 302 303 302 302 302 303 304 303 303 301 303 303 304 306 307 306 305 306 307 308 308 308 309 310 311 309 311 311 313 316 317 318 322 322 323 323 321 321
300 301 300 301 302 302 302 302 301 302 303 303 303 303 303 304 303 304 303 303 303 303 305 305 304 305 307 306 306 308 308 308 309 309 309 311 311 312 315 317 324 322 322 323 323 322 320
300 300 300 300 301 301 301 302 301 302 302 302 303 303 303 303 303 303 303 303 303 303 302 303 304 306 306 307 306 308 308 309 309 310 310 310 312 314 316 319 321 324 326 325 323 323 325
301 300 301 301 301 301 302 302 302 302 301 302 302 302 303 303 303 303 303 302 302 303 303 305 305 304 307 305 307 309 310 313 313 315 311 311 312 316 316 321 325 323 327 329 327 325 336
302 302 301 301 301 301 301 301 302 302 302 302 302 302 303 303 303 302 302 301 302 302 302 302 305 306 307 306 306 308 310 311 312 317 315 314 319 319 318 319 322 326 334 331 331 326 336
303 303 303 303 303 302 301 301 302 301 301 302 302 302 302 302 302 302 302 302 302 303 303 303 303 305 303 307 308 308 309 310 311 312 316 319 322 323 319 325 328 331 335 340 336 336 343
303 303 303 303 303 303 303 303 302 302 302 302 302 302 303 303 302 302 302 302 303 303 303 303 304 304 306 306 305 306 308 310 310 315 314 318 320 324 323 325 324 327 329 335 334 338 340
Wind_Speed
24 24 23 22 23 23 24 24 23 22 22 22 23 23 23 23 23 22 21 21 21 20 19 19 19 15 14 11 26 9 3 4 12 26 30 22 23 23 7 7 14 14 15 13 28 17 26
24 24 25 24 24 24 25 25 26 26 25 23 23 23 23 23 23 23 23 22 22 21 21 20 19 16 14 11 16 9 18 23 11 23 28 27 15 22 8 8 8 9 16 12 14 23 24
24 25 26 26 26 26 26 26 27 28 29 29 27 26 26 25 23 23 22 23 21 21 22 22 19 17 20 37 10 5 11 12 23 21 24 24 24 18 11 5 9 5 4 5 7 12 13
24 25 26 26 26 26 27 28 27 28 30 31 31 29 28 28 27 26 23 20 21 21 20 20 17 16 15 16 16 29 25 13 14 22 24 17 19 25 6 4 8 3 2 2 1 3 7
22 23 24 25 26 27 28 29 29 29 31 31 30 30 30 29 29 28 25 20 19 17 14 12 10 11 13 11 17 22 32 29 22 21 24 17 14 11 11 4 3 4 4 5 9 6 6
22 24 25 25 26 27 28 29 31 32 34 35 33 32 32 33 30 29 23 17 7 5 2 2 6 5 16 8 3 5 13 28 25 24 22 13 12 4 2 4 8 5 4 4 6 5 8
24 24 25 26 28 28 29 29 31 33 34 35 35 34 34 34 35 26 14 4 6 2 6 10 6 10 15 10 9 6 10 30 26 12 8 10 6 9 9 6 5 3 3 5 6 3 2
26 26 27 28 28 29 30 31 33 34 35 35 35 34 35 34 33 12 23 7 12 12 18 21 29 39 40 32 10 11 14 22 11 9 6 3 15 8 8 8 8 7 7 12 14 8 8
25 26 26 27 28 29 30 31 32 33 34 34 35 34 34 33 21 18 18 8 16 21 7 14 25 25 24 29 19 29 21 26 6 10 9 10 6 10 9 7 8 6 9 11 10 4 2
25 25 26 28 28 29 29 30 31 32 33 33 33 32 33 34 9 25 5 16 17 13 4 8 6 7 13 14 10 44 25 23 5 18 8 7 10 10 9 8 9 9 7 9 5 3 3
25 26 26 27 28 28 29 30 32 33 34 35 35 31 29 28 30 25 15 15 10 1 6 3 4 5 14 17 5 19 37 19 10 8 9 9 13 16 11 17 8 11 4 8 3 4 0
25 26 27 28 29 30 30 31 32 33 34 36 36 34 30 29 33 12 21 14 2 3 9 5 3 3 5 8 4 8 24 13 14 5 5 12 7 13 11 8 13 4 2 5 3 3 6
26 28 29 30 30 31 31 32 32 32 34 36 36 33 29 31 31 23 17 9 3 5 5 4 5 5 4 5 5 5 15 16 10 12 14 6 20 5 6 8 6 5 7 3 3 4 11
27 28 29 30 30 31 31 31 31 32 34 36 37 34 29 16 18 7 3 3 6 4 6 5 5 9 3 10 3 5 13 18 14 4 7 9 6 15 6 10 11 8 12 6 8 5 8
28 29 30 30 30 30 30 30 31 31 33 34 36 34 28 12 20 9 5 4 7 5 3 8 7 6 5 6 7 8 7 13 15 10 10 9 10 4 15 7 16 8 11 13 1 3 2
29 29 29 29 29 29 29 30 30 30 31 31 34 33 13 17 26 7 3 4 4 3 6 5 4 4 5 8 8 8 6 3 8 5 4 8 3 7 11 9 9 15 9 4 2 11 13
28 28 28 28 29 29 29 28 29 29 28 28 26 17 11 27 12 5 3 6 6 18 7 6 3 4 2 4 4 3 5 5 13 11 10 3 4 7 6 8 15 4 13 4 6 7 9
28 29 29 29 28 28 27 27 26 26 26 24 14 4 19 24 8 5 4 13 15 11 14 3 3 4 3 5 3 2 5 5 18 7 5 6 3 14 17 7 19 19 16 9 7 12 6
28 28 27 27 26 26 25 25 23 23 21 22 18 9 12 10 4 5 7 7 15 13 6 5 5 5 6 2 2 3 5 7 19 10 6 7 4 2 6 4 3 10 12 13 10 4 21
26 27 27 27 27 26 25 24 22 20 17 14 7 4 6 6 7 4 5 4 10 19 6 12 3 3 4 4 5 4 4 3 18 8 12 3 3 4 5 5 4 7 11 20 17 11 17
27 27 27 27 26 27 24 21 20 17 14 10 3 3 2 4 5 5 7 5 6 9 9 15 4 7 4 2 2 2 1 7 10 7 6 4 3 3 5 13 14 15 12 25 20 23 16
25 26 27 26 25 24 22 20 18 14 13 6 5 3 3 7 6 5 5 5 5 5 4 4 8 12 2 4 4 4 5 2 5 5 6 3 4 6 5 9 10 15 20 25 24 23 18
27 27 27 26 25 23 22 19 16 14 11 5 6 10 7 5 3 2 3 2 9 15 7 12 9 11 5 3 11 17 21 18 10 3 3 2 1 5 5 8 11 11 25 20 23 13 17
27 27 26 25 23 22 21 19 15 12 10 10 13 12 6 4 6 6 10 15 13 13 13 21 22 3 7 22 24 15 14 19 17 12 13 3 4 1 5 6 8 10 9 17 18 8 9
27 27 27 24 23 22 21 20 17 12 9 13 14 11 4 5 9 11 13 9 14 16 15 15 22 8 18 16 4 4 4 2 13 19 18 16 5 2 3 3 9 12 4 9 13 14 7
25 24 25 24 22 22 20 20 18 15 12 15 14 12 11 6 5 9 3 11 8 6 5 5 11 22 8 2 3 5 4 3 4 5 20 17 17 5 3 4 6 0 18 25 14 17 9
25 25 25 25 25 23 21 19 18 16 13 14 13 9 11 8 17 15 7 5 7 5 5 9 8 5 0 1 3 4 5 4 4 4 4 6 7 14 11 5 8 9 25 16 5 8 7
26 27 27 27 27 26 23 21 18 15 13 14 16 12 14 12 26 28 28 22 16 11 5 6 10 1 3 2 2 3 4 6 5 6 5 9 10 6 8 8 8 16 12 9 10 24 5
27 28 30 31 31 30 27 23 20 17 15 14 19 12 14 18 26 32 36 41 36 37 22 11 9 6 3 1 1 2 3 4 5 4 4 6 7 8 6 6 2 8 12 24 20 14 18
Wind_Direction
359 1 0 357 355 355 354 352 350 349 346 343 340 336 330 325 321 315 312 308 304 296 293 291 293 294 286 267 255 230 163 73 172 178 184 182 185 199 191 206 208 222 249 245 258 264 192
2 1 0 359 358 356 355 355 354 354 351 346 342 341 337 329 320 316 311 306 301 298 291 285 284 284 269 245 278 276 222 224 199 183 188 196 202 206 240 232 189 213 224 249 259 273 180
359 359 359 358 359 357 356 354 352 353 351 348 343 339 338 336 327 316 308 302 302 295 290 286 279 269 254 249 252 291 186 196 211 209 207 211 214 194 228 291 277 272 280 308 235 248 168
355 354 355 356 355 355 354 353 352 351 350 348 345 342 339 335 331 323 308 308 303 293 288 281 273 260 251 275 239 240 233 235 236 221 225 234 232 216 216 282 336 266 94 329 337 256 203
353 354 355 353 351 350 350 351 352 350 350 349 347 344 341 337 333 326 318 314 300 298 290 275 254 233 263 250 242 230 223 227 221 213 216 232 229 210 212 157 352 344 225 224 312 219 152
358 355 354 353 351 350 349 349 349 348 348 347 346 345 343 340 339 330 328 319 319 317 355 263 213 268 243 238 217 284 216 207 204 213 221 222 200 170 105 135 207 202 214 229 229 297 176
355 354 353 352 351 350 349 348 346 344 343 342 341 341 340 340 342 336 352 5 342 294 298 238 228 247 250 266 265 255 215 188 201 194 169 175 184 208 207 187 198 185 250 254 253 260 94
352 351 350 348 348 348 346 343 342 342 342 342 341 339 337 339 344 5 352 71 35 326 294 276 258 253 251 258 291 239 205 174 171 193 162 158 219 196 198 190 209 221 229 259 295 175 185
350 348 347 347 345 345 344 342 341 341 340 339 340 340 337 335 345 349 353 25 348 331 260 283 245 245 243 226 224 244 188 189 149 180 198 206 226 168 179 191 190 220 209 242 232 359 322
348 347 346 345 345 345 344 343 342 341 339 338 339 339 337 334 346 337 345 336 332 322 312 275 235 249 192 187 227 223 200 190 169 198 158 222 230 188 196 210 183 235 200 251 265 53 247
348 348 348 348 348 348 346 345 344 344 342 340 340 339 336 332 317 325 325 330 314 4 317 228 182 165 169 173 151 206 203 193 179 169 149 223 187 202 209 215 162 243 200 225 185 205 197
350 350 349 348 346 344 343 343 342 343 342 339 339 337 334 327 312 326 321 329 312 49 247 300 90 76 122 264 288 109 179 186 201 157 202 212 218 193 197 197 201 168 281 339 48 149 246
349 348 346 344 343 341 340 339 338 340 340 341 340 337 328 318 316 307 302 324 70 202 331 354 349 341 303 209 243 177 173 188 171 192 218 175 231 201 151 177 193 130 119 265 289 196 241
347 346 344 343 342 340 339 337 337 338 338 340 340 341 323 354 345 285 231 69 208 233 269 13 331 298 63 0 10 324 178 190 217 135 175 183 236 201 169 185 192 192 183 167 200 193 244
345 344 343 342 341 341 341 342 340 338 337 338 340 342 340 39 13 335 184 200 205 207 9 346 332 42 352 3 12 17 8 216 201 176 179 183 236 201 195 181 177 193 194 206 158 206 15
343 341 340 340 341 342 341 343 343 339 337 340 342 334 19 1 338 318 48 273 274 335 4 360 20 21 350 345 8 25 343 339 349 347 246 211 226 213 205 185 216 196 166 190 351 224 244
339 339 339 339 340 339 341 341 342 339 336 341 341 326 6 349 327 187 198 245 301 307 358 352 332 314 301 317 15 24 282 29 4 348 339 276 244 231 154 187 198 195 214 187 162 182 228
343 341 340 338 337 338 338 339 339 339 336 340 336 327 354 359 49 18 5 314 314 307 1 309 296 279 285 20 321 249 243 29 19 347 19 333 275 242 222 219 206 207 211 167 197 225 257
342 341 340 339 337 337 336 336 337 339 337 338 323 293 15 11 57 2 320 315 349 9 331 2 332 37 19 327 321 68 321 41 19 19 16 340 309 268 312 305 310 216 196 197 219 156 233
343 343 343 341 340 337 334 335 335 338 335 338 318 329 344 42 66 351 345 315 350 335 315 359 300 23 9 19 25 327 306 354 338 333 350 34 283 222 261 270 325 208 228 210 205 223 234
347 346 344 343 341 338 334 332 335 336 330 334 301 280 358 321 345 325 323 279 357 355 335 340 358 25 32 298 302 184 32 330 327 3 13 74 270 270 301 294 282 264 259 225 216 220 213
350 348 349 348 347 344 340 336 334 334 319 315 287 300 338 283 299 315 314 351 6 345 333 297 339 332 247 212 233 309 342 203 248 315 2 17 282 350 285 265 291 274 258 252 225 217 227
351 348 348 348 349 347 344 342 338 332 316 280 273 288 271 266 280 276 252 321 315 318 271 270 312 312 292 266 317 283 259 246 235 190 304 279 114 3 286 309 321 278 239 250 243 217 192
350 348 346 345 346 349 351 347 346 340 321 291 290 283 262 284 277 279 285 293 294 293 290 296 296 273 294 318 309 288 256 228 221 225 203 240 140 169 260 315 233 267 315 237 232 214 206
349 349 347 343 344 342 344 347 342 333 320 299 290 277 263 279 275 285 264 294 304 293 280 256 272 276 317 309 301 331 307 249 232 223 214 204 203 217 235 235 292 299 3 341 202 229 206
350 351 351 348 342 341 340 340 338 335 311 299 300 281 263 274 253 263 303 295 290 284 292 257 293 307 302 253 199 209 224 270 277 249 215 196 204 215 186 240 240 103 330 328 316 227 194
348 348 348 345 342 339 334 332 332 330 323 313 311 303 265 263 270 262 242 249 276 275 268 296 304 308 233 244 240 198 227 237 257 251 176 183 179 220 234 252 282 342 334 317 142 247 155
348 348 348 343 339 335 332 330 329 322 328 309 302 292 276 267 274 263 260 255 257 236 250 305 336 337 356 278 282 280 232 217 218 242 262 195 165 189 222 221 253 8 351 356 310 303 287
346 345 343 339 335 333 329 319 316 313 313 309 300 305 290 272 264 278 275 274 258 259 252 242 242 283 264 199 175 315 315 286 217 251 238 251 191 177 213 224 166 23 348 327 326 325 322